When you browse on this site, cookies collect data to enhance your experience and personalize the content and advertising you see.
Visit our Privacy Policy to learn more. By continuing to use the site, you agree to this use of cookies and data.
  • In Hungary
  • List of Countries
  • For 7 days
  • Water Temperature
  • Satellite Maps
  • Weather Map
  • News
  • Weather Widgets
  • user-avatar
    Login

    Hourly Weather Ife

    Today, 17 November, Saturday

    Time Temperature Precipitation Wind Pressure Humidity
    00:00 +24°C° 0 mm 0 mps 735 mmHg 96%
    01:00 +23°C° 0 mm 0 mps 735 mmHg 96%
    02:00 +23°C° 0 mm 0 mps 735 mmHg 97%
    03:00 +23°C° 0 mm 0 mps 735 mmHg 97%
    04:00 +23°C° 0 mm 0 mps 735 mmHg 97%
    05:00 +23°C° 0 mm 0 mps 736 mmHg 97%
    06:00 +24°C° 0 mm 0 mps 736 mmHg 95%
    07:00 +26°C° 0 mm 0 mps 736 mmHg 86%
    08:00 +30°C° 0 mm 1 mps 737 mmHg 76%
    09:00 +31°C° 0 mm 1 mps 737 mmHg 67%
    10:00 +34°C° 0 mm 1 mps 736 mmHg 59%
    11:00 +36°C° 0 mm 1 mps 736 mmHg 50%
    12:00 +36°C° 0 mm 0 mps 735 mmHg 41%
    13:00 +34°C° 0 mm 0 mps 735 mmHg 44%
    14:00 +35°C° 0 mm 1 mps 734 mmHg 46%
    15:00 +34°C° 0 mm 1 mps 734 mmHg 49%
    16:00 +32°C° 0 mm 1 mps 734 mmHg 56%
    17:00 +31°C° 0 mm 1 mps 734 mmHg 62%
    18:00 +29°C° 0 mm 1 mps 734 mmHg 69%
    19:00 +28°C° 0 mm 1 mps 735 mmHg 75%
    20:00 +27°C° 0 mm 1 mps 735 mmHg 80%
    21:00 +27°C° 0 mm 1 mps 735 mmHg 86%
    22:00 +26°C° 0 mm 1 mps 735 mmHg 89%
    23:00 +26°C° 0 mm 1 mps 735 mmHg 92%

    Tomorrow, 18 November, Sunday

    Time Temperature Precipitation Wind Pressure Humidity
    00:00 +25°C° 0 mm 1 mps 735 mmHg 95%
    01:00 +25°C° 0.1 mm 1 mps 735 mmHg 96%
    02:00 +23°C° 0.1 mm 0 mps 734 mmHg 97%
    03:00 +23°C° 0.1 mm 0 mps 734 mmHg 97%
    04:00 +23°C° 0 mm 0 mps 734 mmHg 97%
    05:00 +23°C° 0 mm 0 mps 735 mmHg 97%
    06:00 +23°C° 0 mm 0 mps 735 mmHg 97%
    07:00 +27°C° 0 mm 1 mps 735 mmHg 88%
    08:00 +29°C° 0 mm 1 mps 736 mmHg 78%
    09:00 +31°C° 0 mm 2 mps 736 mmHg 69%
    10:00 +33°C° 0 mm 1 mps 736 mmHg 60%
    11:00 +35°C° 0 mm 1 mps 736 mmHg 52%
    12:00 +36°C° 0 mm 0 mps 735 mmHg 43%
    13:00 +35°C° 0 mm 0 mps 734 mmHg 44%
    14:00 +36°C° 0 mm 1 mps 734 mmHg 45%
    15:00 +35°C° 0 mm 1 mps 733 mmHg 46%
    16:00 +33°C° 0.1 mm 1 mps 733 mmHg 55%
    17:00 +31°C° 0.1 mm 1 mps 733 mmHg 63%
    18:00 +29°C° 0.1 mm 1 mps 733 mmHg 71%
    19:00 +29°C° 0 mm 1 mps 734 mmHg 78%
    20:00 +28°C° 0 mm 1 mps 734 mmHg 85%
    21:00 +27°C° 0 mm 1 mps 735 mmHg 92%
    22:00 +26°C° 0.2 mm 1 mps 735 mmHg 93%
    23:00 +26°C° 0.2 mm 1 mps 734 mmHg 95%

    Day after tomorrow, 19 November, Monday

    Time Temperature Precipitation Wind Pressure Humidity
    00:00 +26°C° 0.2 mm 1 mps 734 mmHg 97%
    01:00 +25°C° 0.1 mm 1 mps 734 mmHg 97%
    02:00 +25°C° 0.1 mm 1 mps 734 mmHg 98%
    03:00 +25°C° 0.1 mm 1 mps 734 mmHg 98%
    04:00 +25°C° 0 mm 1 mps 734 mmHg 97%
    05:00 +26°C° 0 mm 1 mps 734 mmHg 97%
    06:00 +26°C° 0 mm 1 mps 735 mmHg 97%
    07:00 +27°C° 0 mm 1 mps 735 mmHg 90%
    08:00 +28°C° 0 mm 1 mps 736 mmHg 83%
    09:00 +30°C° 0 mm 1 mps 736 mmHg 77%
    10:00 +31°C° 0 mm 1 mps 736 mmHg 70%
    11:00 +33°C° 0 mm 1 mps 735 mmHg 63%
    12:00 +34°C° 0 mm 1 mps 735 mmHg 55%
    13:00 +34°C° 0.1 mm 1 mps 734 mmHg 55%
    14:00 +34°C° 0.1 mm 1 mps 733 mmHg 54%
    15:00 +34°C° 0.1 mm 1 mps 732 mmHg 53%
    16:00 +32°C° 0.2 mm 1 mps 732 mmHg 63%
    17:00 +30°C° 0.2 mm 2 mps 733 mmHg 72%
    18:00 +28°C° 0.2 mm 2 mps 733 mmHg 82%
    19:00 +28°C° 0.1 mm 2 mps 733 mmHg 86%
    20:00 +27°C° 0.1 mm 2 mps 734 mmHg 90%
    21:00 +27°C° 0.1 mm 1 mps 735 mmHg 94%
    22:00 +26°C° 0 mm 1 mps 734 mmHg 95%
    23:00 +26°C° 0 mm 1 mps 734 mmHg 96%

    20 November, Tuesday

    Time Temperature Precipitation Wind Pressure Humidity
    00:00 +26°C° 0 mm 1 mps 734 mmHg 97%
    01:00 +26°C° 0 mm 1 mps 734 mmHg 97%
    02:00 +26°C° 0 mm 1 mps 734 mmHg 97%
    03:00 +26°C° 0 mm 1 mps 733 mmHg 98%
    04:00 +26°C° 0 mm 1 mps 734 mmHg 97%
    05:00 +26°C° 0 mm 1 mps 734 mmHg 97%
    06:00 +24°C° 0 mm 0 mps 734 mmHg 97%
    07:00 +27°C° 0 mm 1 mps 735 mmHg 91%
    08:00 +28°C° 0 mm 1 mps 736 mmHg 85%
    09:00 +30°C° 0 mm 1 mps 736 mmHg 79%
    10:00 +31°C° 0 mm 1 mps 736 mmHg 73%
    11:00 +32°C° 0 mm 1 mps 735 mmHg 67%
    12:00 +33°C° 0 mm 1 mps 735 mmHg 62%
    13:00 +33°C° 0.7 mm 1 mps 734 mmHg 65%
    14:00 +32°C° 0.7 mm 1 mps 734 mmHg 69%
    15:00 +32°C° 0.7 mm 1 mps 733 mmHg 72%
    16:00 +30°C° 0.4 mm 1 mps 733 mmHg 79%
    17:00 +29°C° 0.4 mm 1 mps 733 mmHg 86%
    18:00 +27°C° 0.4 mm 2 mps 734 mmHg 92%
    19:00 +27°C° 0 mm 1 mps 734 mmHg 94%
    20:00 +26°C° 0 mm 1 mps 735 mmHg 95%
    21:00 +26°C° 0 mm 1 mps 735 mmHg 97%
    22:00 +26°C° 0 mm 1 mps 735 mmHg 97%
    23:00 +26°C° 0 mm 1 mps 735 mmHg 97%

    21 November, Wednesday

    Time Temperature Precipitation Wind Pressure Humidity
    00:00 +26°C° 0 mm 1 mps 734 mmHg 98%
    01:00 +26°C° 0 mm 1 mps 734 mmHg 97%
    02:00 +26°C° 0 mm 1 mps 734 mmHg 97%
    03:00 +26°C° 0 mm 1 mps 734 mmHg 97%
    04:00 +26°C° 0 mm 1 mps 734 mmHg 97%
    05:00 +26°C° 0 mm 1 mps 734 mmHg 97%
    06:00 +24°C° 0 mm 0 mps 735 mmHg 97%
    07:00 +28°C° 0 mm 1 mps 735 mmHg 89%
    08:00 +29°C° 0 mm 1 mps 736 mmHg 81%
    09:00 +31°C° 0 mm 1 mps 736 mmHg 74%
    10:00 +32°C° 0.1 mm 1 mps 736 mmHg 69%
    11:00 +32°C° 0.1 mm 1 mps 735 mmHg 65%
    12:00 +33°C° 0.1 mm 1 mps 734 mmHg 61%
    13:00 +33°C° 0.5 mm 1 mps 734 mmHg 64%
    14:00 +32°C° 0.5 mm 1 mps 733 mmHg 67%
    15:00 +32°C° 0.5 mm 1 mps 733 mmHg 70%
    16:00 +31°C° 0.3 mm 1 mps 733 mmHg 77%
    17:00 +29°C° 0.3 mm 1 mps 733 mmHg 84%
    18:00 +27°C° 0.3 mm 2 mps 734 mmHg 91%
    19:00 +27°C° 0 mm 2 mps 734 mmHg 93%
    20:00 +27°C° 0 mm 2 mps 735 mmHg 94%
    21:00 +26°C° 0 mm 2 mps 735 mmHg 96%
    22:00 +26°C° 0 mm 2 mps 735 mmHg 96%
    23:00 +26°C° 0 mm 2 mps 735 mmHg 97%

    22 November, Thursday

    Time Temperature Precipitation Wind Pressure Humidity
    00:00 +26°C° 0 mm 2 mps 735 mmHg 97%
    01:00 +26°C° 0.1 mm 2 mps 734 mmHg 97%
    02:00 +26°C° 0.1 mm 2 mps 734 mmHg 96%
    03:00 +26°C° 0.1 mm 1 mps 734 mmHg 96%
    04:00 +26°C° 0.1 mm 1 mps 734 mmHg 96%
    05:00 +26°C° 0.1 mm 1 mps 735 mmHg 96%
    06:00 +26°C° 0.1 mm 1 mps 735 mmHg 96%
    07:00 +27°C° 0.1 mm 1 mps 735 mmHg 90%
    08:00 +28°C° 0.1 mm 1 mps 736 mmHg 84%
    09:00 +30°C° 0.1 mm 1 mps 736 mmHg 78%
    10:00 +31°C° 0.1 mm 1 mps 736 mmHg 70%
    11:00 +33°C° 0.1 mm 1 mps 735 mmHg 62%
    12:00 +35°C° 0.1 mm 1 mps 734 mmHg 54%
    13:00 +34°C° 0.3 mm 1 mps 734 mmHg 57%
    14:00 +33°C° 0.3 mm 1 mps 733 mmHg 60%
    15:00 +33°C° 0.3 mm 1 mps 733 mmHg 63%
    16:00 +31°C° 0.5 mm 1 mps 733 mmHg 72%
    17:00 +29°C° 0.5 mm 2 mps 733 mmHg 81%
    18:00 +27°C° 0.5 mm 2 mps 734 mmHg 90%
    19:00 +27°C° 0 mm 2 mps 734 mmHg 92%
    20:00 +26°C° 0 mm 2 mps 735 mmHg 94%
    21:00 +26°C° 0 mm 1 mps 735 mmHg 96%
    22:00 +26°C° 0 mm 1 mps 735 mmHg 96%
    23:00 +25°C° 0 mm 1 mps 734 mmHg 97%
    Show more